User: anonymous   Login
Location: Unspecified
(0.0000°N, 0.0000°E)
Time: 14:52:26
(UTC+00:00)
Language:

NUDT-PHONESAT - Orbit

View from above orbital plane
View from above orbital plane
View from above satellite
View from above satellite

Ground track
Ground track

The orbit data is extracted from the following two-line orbital elements,

1 40900U 15049B   18203.22953704  .00001782  00000-0  82274-4 0  9993
2 40900  97.4406 211.0791 0011578 266.5450  93.4461 15.21467414157247
Epoch (UTC): 22 July 2018 05:30:32
Eccentricity: 0.0011578
inclination: 97.4406°
perigee height: 493 km
apogee height: 509 km
right ascension of ascending node: 211.0791°
argument of perigee: 266.5450°
revolutions per day: 15.21467414
mean anomaly at epoch: 93.4461°
orbit number at epoch: 15724

The dashed part of the orbit path shows where the satellite is in the earth's shadow,  

DLR